Location: *
(44.5667°N, 10.7167°E)
Time: 14:02:31
(UTC+00:00)

Daily predictions for brighter satellites

Satellite Brightness Start Highest point End
(mag) Time Altitude Azimuth Time Altitude Azimuth Time Altitude Azimuth
SPOT 1/Viking Rocket 3.7 19:33:02 10° SSE 19:38:06 64° ENE 19:43:14 10° N
Cosmos 1656 3.7 19:36:42 10° NNW 19:42:13 85° ENE 19:47:47 10° SSE
Cosmos 1452 Rocket 3.5 19:40:50 10° S 19:46:03 72° ESE 19:51:18 10° NNE
ERS-1 Rocket 4.4 19:42:50 10° ESE 19:46:51 24° ENE 19:50:51 10° N
ATLAS 5 CENTAUR R/B 3.6 19:34:24 10° NW 19:47:04 61° WSW 19:50:56 10° SSE
MetOp-B 4.4 19:42:59 10° SSE 19:48:12 57° ENE 19:53:27 10° N
Cosmos 1110 Rocket 4.3 19:44:36 10° S 19:49:39 49° ESE 19:54:46 10° NNE
X-37B 0.3 19:48:37 10° W 19:51:25 70° SSW 19:54:13 10° ESE
SL-8 R/B 3.8 19:51:54 10° WNW 19:56:42 75° SSW 20:01:22 11° ESE
Cosmos 2228 3.6 19:54:47 10° N 19:58:47 40° ENE 20:02:34 11° SE
Cosmos 1697 Rocket 2.9 19:57:22 10° NNW 20:02:57 62° ENE 20:08:06 12° SE
Cosmos 1980 Rocket 3.2 19:58:14 10° N 20:03:25 34° NE 20:08:21 11° ESE
SL-16 R/B 4.4 20:02:36 10° NNE 20:05:09 13° NE 20:07:42 10° ENE
ATLAS 5 CENTAUR R/B 2.9 20:09:31 13° ESE 20:10:08 14° ESE 20:12:08 10° E
Cosmos 2369 4.4 20:06:20 10° NNW 20:11:49 43° ENE 20:16:35 13° SE
Cosmos 1408 4.4 20:14:47 13° ESE 20:15:56 15° E 20:17:55 10° NE
Resurs 01 Rocket 2.6 20:11:52 10° S 20:16:08 46° W 20:20:26 10° NNW
Cosmos 2344 4.5 20:08:19 10° NW 20:17:08 67° NE 20:28:17 13° SE
COSMOS 2406 3.3 20:14:07 10° S 20:19:44 57° ESE 20:25:21 10° NNE
Cosmos 2184 Rocket 4.0 20:18:41 10° N 20:24:54 89° W 20:31:09 10° S
Cosmos 1833 Rocket 2.8 20:19:45 10° SSW 20:25:22 79° WNW 20:31:01 10° NNE
H-2A R/B 3.7 20:22:27 10° N 20:26:36 38° WNW 20:30:45 10° SW
Cosmos 1867 4.1 20:25:08 10° NNW 20:30:29 51° NE 20:34:38 16° ESE
Cosmos 1536 Rocket 4.3 20:26:47 10° SSW 20:31:00 52° WNW 20:35:18 10° N
Cosmos 1703 3.7 20:28:20 10° SSW 20:32:08 60° W 20:35:58 10° N
CARTOSAT-1 3.9 20:29:15 11° S 20:33:21 61° W 20:37:38 10° NNW
Cosmos 1825 4.2 20:33:23 12° E 20:34:03 12° E 20:35:40 10° ENE
USA 245 3.2 20:32:00 15° S 20:35:15 72° WSW 20:38:29 10° NNW
Cosmos 1606 Rocket 3.6 20:32:31 10° N 20:36:51 67° E 20:39:49 20° SSE
Ariane Rocket 3.9 20:32:32 10° S 20:37:25 46° W 20:42:19 10° NNW
Cosmos 2322 Rocket 4.3 20:36:07 10° N 20:39:35 16° NE 20:43:03 10° E
CZ-4B R/B 3.7 20:44:00 10° NNW 20:46:13 20° WNW 20:48:25 10° WSW
ARIANE 5 R/B 3.2 20:44:14 22° SE 20:46:48 45° ENE 20:51:00 10° N
Terra 1.9 20:44:04 21° SSE 20:47:11 64° ENE 20:51:54 10° N
GP-B 4.3 20:43:30 10° NNE 20:47:17 27° E 20:49:01 21° ESE
SPOT 3 Rocket 4.0 20:44:20 12° S 20:48:59 57° W 20:54:08 10° NNW
SPOT 5 2.6 20:46:57 20° S 20:49:58 82° WSW 20:54:19 10° NNW
RESURS DK-1 4.2 20:50:25 10° NW 20:53:44 24° WSW 20:56:54 11° SSW
Cosmos 2278 4.3 20:48:15 10° NNW 20:53:48 48° ENE 20:57:25 21° SE
USA 276 3.6 20:51:38 10° NW 20:54:26 33° NNE 20:56:54 12° ENE
Cosmos 2341 Rocket 4.3 20:49:10 10° N 20:55:21 55° ENE 20:59:17 23° SSE
FALCON 9 DEB 4.1 20:52:53 10° NW 20:55:59 39° NNE 20:58:00 18° E
Cosmos 1726 Rocket 3.5 20:54:25 10° N 20:58:45 89° ENE 21:01:14 25° S
Cosmos 1992 Rocket 4.5 20:57:38 23° SSE 21:00:17 41° ESE 21:05:10 10° NE
Meteor 1-11 4.2 20:58:41 19° S 21:02:39 65° E 21:08:10 10° NNE
Cosmos 2082 Rocket 2.2 20:57:47 10° SSW 21:03:30 88° ESE 21:09:15 10° NNE
Okean 1-7 Rocket 4.5 21:03:32 26° SE 21:04:59 33° E 21:09:01 10° NNE
Helios 1A Rocket 3.4 21:04:55 22° S 21:07:21 56° WSW 21:11:25 10° NNW
Spot 2 Rocket 3.9 21:04:02 18° S 21:07:43 58° W 21:12:46 10° NNW
Cosmos 1328 4.4 21:05:03 14° SSW 21:08:26 56° WNW 21:12:22 10° N
ASTEX 1 3.8 21:04:38 10° NNE 21:09:29 47° E 21:11:40 29° SSE
TIMED 4.4 21:07:04 18° SSW 21:10:14 82° ESE 21:14:37 10° NNE
Cosmos 2084 Rocket 4.1 21:08:35 10° NW 21:12:17 40° WSW 21:13:53 27° S
Cosmos 2360 Rocket 4.2 21:10:20 10° N 21:14:17 19° NE 21:18:12 10° E
Cosmos 1932 4.4 21:11:10 10° SSW 21:17:22 81° ESE 21:23:43 10° NE
Cosmos 2181 Rocket 4.1 21:17:08 26° SSE 21:20:38 60° E 21:26:46 10° NNE
ERS-1 Rocket 3.7 21:22:07 20° SSW 21:25:21 45° W 21:30:12 10° NNW
X-37B 2.7 21:24:35 10° WSW 21:25:27 14° WSW 21:25:27 14° WSW
Cosmos 1892 2.6 21:26:27 36° SSW 21:27:54 80° W 21:31:42 10° N
Cosmos 1602 Rocket 4.4 21:28:28 30° ESE 21:29:13 32° E 21:33:05 10° NNE
Cosmos 968 Rocket 4.4 21:39:10 10° NW 21:44:01 40° WSW 21:46:30 25° SSW
Cosmos 1503 Rocket 4.3 21:40:16 10° NNW 21:45:29 56° ENE 21:47:32 34° SE
ALOS 2 4.2 21:44:13 19° E 21:45:40 23° ENE 21:49:06 10° NNE
Cosmos 1980 Rocket 3.1 21:42:11 10° NW 21:47:28 40° WSW 21:50:07 25° SSW
Cosmos 2219 Rocket 4.5 21:46:26 10° N 21:49:59 16° NE 21:53:30 10° E
Cosmos 1408 4.0 21:48:44 21° WSW 21:50:18 30° WNW 21:53:25 10° NNW
SL-16 R/B 2.5 21:44:52 10° NNW 21:50:30 61° ENE 21:52:57 33° SE
Cosmos 1626 Rocket 3.4 21:50:06 46° S 21:51:21 88° E 21:55:44 10° N
Cosmos 2058 Rocket 3.9 21:47:19 10° NNW 21:51:32 43° W 21:53:20 28° SW
Cosmos 2058 4.4 21:53:50 23° E 21:53:56 23° E 21:57:17 10° NE
ATLAS 5 CENTAUR R/B 2.0 21:50:51 13° WSW 21:54:01 52° NW 21:58:05 10° NNE
USA 267 3.3 21:48:09 10° NE 21:54:35 57° SE 21:59:31 18° SSW
SL-8 Rocket 4.2 21:48:40 10° NNW 21:54:49 65° W 21:58:01 29° SSW
SJ 16-02 1.9 21:58:14 10° N 22:02:32 48° ENE 22:03:35 39° ESE
SL-4 R/B 2.8 22:04:44 31° ENE 22:04:44 31° ENE 22:06:47 10° ENE
Cosmos 1825 Rocket 4.4 22:04:05 33° E 22:04:21 33° E 22:08:14 10° NNE
Meteor 2-20 4.5 22:03:58 38° SSE 22:06:18 66° E 22:12:21 10° NNE
Cosmos 1825 3.0 22:08:00 36° WSW 22:08:56 45° WNW 22:12:34 10° N
Cosmos 2221 4.4 22:11:14 10° NNE 22:14:23 19° ENE 22:15:26 18° E
Cosmos 2366 rocket 4.5 22:09:00 10° NNW 22:15:10 55° W 22:18:15 29° SSW
Cosmos 1869 4.1 22:14:07 10° NNW 22:17:48 40° W 22:18:25 37° WSW
Cosmos 2322 Rocket 2.2 22:18:52 10° NNW 22:24:35 80° ENE 22:26:28 44° SE
Terra 4.1 22:22:57 11° WSW 22:25:22 15° W 22:28:05 10° NW
USA 234 3.8 22:22:04 10° ESE 22:28:25 57° NNE 22:34:49 10° NW
USA 276 4.0 22:27:19 10° WNW 22:28:42 24° WNW 22:28:42 24° WNW
Cosmos 1934 Rocket 4.3 22:26:37 10° N 22:32:34 53° ENE 22:34:46 36° SE
Meteor 2-20 Rocket 4.4 22:33:21 44° S 22:35:27 80° E 22:41:34 10° N
BREEZE-M DEB (TANK) 4.3 22:34:12 10° WNW 22:37:46 69° NNE 22:52:40 10° ESE
Cosmos 1633 3.6 22:39:00 35° W 22:39:11 36° WNW 22:42:25 10° N
Cosmos 1758 Rocket 4.1 22:42:24 43° WSW 22:43:19 52° WNW 22:47:38 10° N
Cosmos 2333 Rocket 2.9 22:39:54 10° NNW 22:45:30 48° ENE 22:48:05 29° ESE
COSMOS 2487 4.5 22:52:54 17° ENE 22:52:54 17° ENE 22:53:59 10° NE
Cosmos 1606 3.1 22:50:40 10° NNW 22:54:21 52° W 22:54:21 52° W
Cosmos-2242 3.7 22:50:48 10° NNW 22:54:47 40° W 22:55:10 39° WSW
ADEOS Rocket 3.5 22:53:13 39° S 22:56:22 81° WSW 23:04:12 10° NNW
Cosmos 1340 Rocket 2.7 22:58:42 86° N 22:58:42 86° N 23:02:36 10° N
ISS -1.6 23:00:48 20° ENE 23:00:48 20° ENE 23:02:00 10° ENE
Cosmos 2360 Rocket 2.1 22:53:20 10° NNW 22:59:03 86° WSW 23:00:31 52° SSE
Gbstr 26 Del rocket 3.2 22:59:00 34° WSW 23:00:48 73° NNW 23:05:52 10° ENE
Meteor 2-3 Rocket 4.3 23:04:49 36° ESE 23:06:03 42° E 23:11:16 10° NNE
Cosmos 2333 4.3 23:02:52 10° NNW 23:08:41 73° ENE 23:10:38 42° SE
Cosmos 1076 Rocket 4.4 23:09:44 37° E 23:09:55 37° E 23:13:56 10° NNE
BREEZE-M DEB (TANK) 3.2 23:12:24 50° ENE 23:12:24 50° ENE 23:16:29 10° ENE
SL-27 R/B 3.5 23:13:18 37° NE 23:13:18 37° NE 23:15:29 10° NNE
NOSS 3-2 (A) 3.9 23:13:41 36° SE 23:14:05 36° ESE 23:19:35 10° NE
Cosmos 44 3.2 23:14:09 53° WSW 23:15:06 70° NW 23:19:34 10° NNE
Meteor 2-11 Rocket 4.3 23:09:25 10° N 23:15:34 86° W 23:17:23 48° S
Cosmos 1833 4.2 23:14:26 46° SW 23:16:11 79° WNW 23:21:48 10° NNE
Cosmos 972 Rocket 4.1 23:12:03 10° NNW 23:17:21 76° WSW 23:18:42 53° S
ALOS 2 3.4 23:21:37 37° WSW 23:21:47 37° W 23:25:53 10° NNW
Cosmos 1782 3.8 23:18:21 10° N 23:22:03 36° ENE 23:22:20 36° E
ERS-2 2.3 23:19:41 10° N 23:22:56 66° NNW 23:22:56 66° NNW
CENTAUR R/B 2.9 23:22:31 39° SE 23:23:25 41° ESE 23:29:40 10° NE
Cosmos 2237 Rocket 4.3 23:20:46 10° N 23:25:07 22° NE 23:29:26 10° E
Cosmos 1605 Rocket 4.0 23:19:51 10° N 23:26:18 84° E 23:28:27 45° SSE
Cosmos 2297 Rocket 4.0 23:29:19 16° ESE 23:30:26 17° E 23:33:57 10° ENE
Cosmos 2058 4.3 23:29:58 28° W 23:30:38 29° WNW 23:34:21 10° NNW
Cosmos 2151 3.4 23:31:03 47° ESE 23:31:15 48° E 23:35:24 10° NNE
COSMOS 2428 3.2 23:26:18 10° NNW 23:31:56 56° ENE 23:34:37 30° SE
Cosmos 1953 Rocket 4.3 23:33:03 39° W 23:33:42 42° WNW 23:37:55 10° N
SL-16 R/B 3.7 23:29:57 10° NW 23:34:05 21° W 23:34:48 21° WSW
Cosmos 2219 Rocket 2.2 23:29:09 10° NNW 23:34:51 82° ENE 23:36:41 45° SE
USA 267 3.9 23:31:15 10° NE 23:37:34 53° NNW 23:43:52 10° WSW
SJ 16-02 3.3 23:37:48 10° NW 23:40:31 17° W 23:40:31 17° W
SL-4 R/B 3.4 23:40:05 13° WNW 23:42:51 33° NNW 23:46:17 10° NE
Cosmos 2322 3.6 23:38:18 10° NNW 23:44:00 88° ENE 23:45:45 47° SSE
Cosmos 1898 Rocket 3.7 23:40:09 10° NNW 23:45:19 63° ENE 23:47:02 40° SE
Cosmos 1937 Rocket 4.1 23:45:22 10° NNW 23:50:29 51° ENE 23:52:45 30° SE
Cosmos 2221 3.2 23:47:59 10° NNW 23:52:05 41° W 23:52:14 41° W
COSMOS 2455 4.2 23:47:03 10° NNW 23:52:37 37° NE 23:58:10 10° ESE
PSLV R/B 4.2 23:50:01 10° N 23:54:39 54° WNW 23:55:36 45° WSW
